�������l�o���
Date,Time,MP-1(��Sv/h),MP-2(��Sv/h),MP-3(��Sv/h),MP-4(��Sv/h),MP-5(��Sv/h),MP-6(��Sv/h),MP-7(��Sv/h),MP-8(��Sv/h),����,����(m/s),���J
2015/04/01,00:00,1.955,3.508,3.897,3.490,3.737,1.085,1.800,1.740,��,3.3,��
2015/04/01,00:10,1.958,3.510,3.898,3.490,3.737,1.085,1.803,1.740,��,2.5,��
2015/04/01,00:20,1.958,3.508,3.903,3.485,3.738,1.082,1.800,1.740,��,3.2,��
2015/04/01,00:30,1.958,3.510,3.902,3.487,3.738,1.082,1.800,1.742,��,2.6,��
2015/04/01,00:40,1.958,3.512,3.902,3.485,3.737,1.082,1.798,1.740,��,3.3,��
2015/04/01,00:50,1.955,3.510,3.902,3.488,3.733,1.083,1.798,1.742,��,3.1,��
2015/04/01,01:00,1.962,3.508,3.900,3.490,3.738,1.083,1.798,1.743,��,3.3,��
2015/04/01,01:10,1.958,3.510,3.902,3.495,3.737,1.083,1.798,1.740,��쐼,2.8,��
2015/04/01,01:20,1.958,3.515,3.907,3.495,3.735,1.082,1.800,1.742,�쐼,4.0,��
2015/04/01,01:30,1.957,3.513,3.905,3.492,3.742,1.082,1.802,1.738,���쐼,4.9,��
2015/04/01,01:40,1.960,3.510,3.903,3.488,3.738,1.085,1.803,1.738,���쐼,5.0,��
2015/04/01,01:50,1.955,3.512,3.903,3.488,3.737,1.083,1.802,1.743,��,3.3,��
2015/04/01,02:00,1.953,3.510,3.902,3.492,3.737,1.087,1.802,1.743,��,2.2,��
2015/04/01,02:10,1.960,3.513,3.908,3.488,3.735,1.083,1.802,1.742,�k�k��,1.6,��
2015/04/01,02:20,1.958,3.508,3.903,3.490,3.737,1.083,1.800,1.738,�k��,1.8,��
2015/04/01,02:30,1.957,3.513,3.900,3.492,3.737,1.085,1.798,1.740,�k��,1.5,��
2015/04/01,02:40,1.953,3.508,3.903,3.492,3.737,1.083,1.802,1.738,���k��,1.5,��
2015/04/01,02:50,1.955,3.508,3.898,3.488,3.733,1.082,1.803,1.743,�k�k��,1.0,��
2015/04/01,03:00,1.958,3.510,3.900,3.488,3.733,1.082,1.800,1.740,���k��,0.7,��
2015/04/01,03:10,1.958,3.512,3.898,3.490,3.733,1.083,1.800,1.740,�쓌,1.0,��
2015/04/01,03:20,1.958,3.510,3.900,3.485,3.733,1.083,1.800,1.738,��,1.2,��
2015/04/01,03:30,1.955,3.510,3.902,3.490,3.735,1.082,1.803,1.742,��,1.7,��
2015/04/01,03:40,1.958,3.507,3.897,3.487,3.735,1.083,1.803,1.743,��쐼,1.4,��
2015/04/01,03:50,1.958,3.510,3.897,3.487,3.733,1.082,1.802,1.742,-,CALM,��
2015/04/01,04:00,1.955,3.512,3.898,3.488,3.732,1.082,1.800,1.740,-,CALM,��
2015/04/01,04:10,1.955,3.508,3.905,3.488,3.735,1.080,1.798,1.740,�k,1.8,��
2015/04/01,04:20,1.953,3.512,3.902,3.487,3.730,1.082,1.798,1.742,�k��,3.1,��
2015/04/01,04:30,1.957,3.512,3.902,3.490,3.737,1.080,1.800,1.743,�k��,4.5,��
2015/04/01,04:40,1.958,3.515,3.900,3.495,3.742,1.082,1.798,1.740,���k��,5.5,��
2015/04/01,04:50,1.960,3.512,3.903,3.495,3.737,1.082,1.802,1.740,��,5.1,��
2015/04/01,05:00,1.960,3.517,3.903,3.493,3.737,1.082,1.802,1.742,��,5.1,��
2015/04/01,05:10,1.957,3.518,3.905,3.495,3.730,1.083,1.802,1.745,��,4.1,��
2015/04/01,05:20,1.957,3.515,3.903,3.493,3.732,1.087,1.803,1.742,��,6.7,��
2015/04/01,05:30,1.958,3.512,3.905,3.495,3.732,1.085,1.803,1.743,��,6.8,��
2015/04/01,05:40,1.960,3.512,3.905,3.495,3.733,1.083,1.803,1.743,��,7.2,��
2015/04/01,05:50,1.963,3.515,3.908,3.497,3.737,1.082,1.805,1.748,��,7.7,��
2015/04/01,06:00,1.958,3.513,3.905,3.495,3.732,1.083,1.800,1.745,��,6.3,��
2015/04/01,06:10,1.960,3.517,3.905,3.497,3.735,1.082,1.802,1.745,��,6.0,��
2015/04/01,06:20,1.957,3.517,3.908,3.498,3.733,1.077,1.802,1.743,��,6.8,��
2015/04/01,06:30,1.958,3.512,3.910,3.497,3.732,1.073,1.803,1.742,���k��,6.0,��
2015/04/01,06:40,1.957,3.517,3.910,3.498,3.732,1.073,1.803,1.742,���k��,6.0,��
2015/04/01,06:50,1.958,3.513,3.912,3.497,3.730,1.073,1.803,1.742,�k��,6.0,��
2015/04/01,07:00,1.962,3.513,3.912,3.500,3.733,1.068,1.803,1.743,�k��,5.5,��
2015/04/01,07:10,1.962,3.517,3.915,3.498,3.733,1.072,1.802,1.745,�k��,5.7,��
2015/04/01,07:20,1.962,3.517,3.913,3.497,3.733,1.070,1.805,1.743,���k��,5.2,��
2015/04/01,07:30,1.960,3.515,3.910,3.497,3.733,1.063,1.805,1.743,�k��,4.6,��
2015/04/01,07:40,1.958,3.517,3.910,3.495,3.732,1.062,1.807,1.742,�k�k��,3.2,��
2015/04/01,07:50,1.958,3.515,3.907,3.498,3.733,1.062,1.805,1.740,�k�k��,3.7,�L
2015/04/01,08:00,1.960,3.515,3.907,3.500,3.732,1.057,1.803,1.740,�k,4.6,�L
2015/04/01,08:10,1.963,3.512,3.903,3.492,3.735,1.057,1.805,1.740,�k,6.5,�L
2015/04/01,08:20,1.960,3.513,3.905,3.495,3.732,1.055,1.802,1.745,�k,5.1,��
2015/04/01,08:30,1.958,3.515,3.908,3.495,3.735,1.055,1.803,1.745,�k,6.7,��
2015/04/01,08:40,1.958,3.515,3.905,3.493,3.735,1.055,1.800,1.740,�k�k��,5.8,��
2015/04/01,08:50,1.957,3.515,3.903,3.497,3.730,1.058,1.800,1.742,�k�k��,5.7,�L
2015/04/01,09:00,1.958,3.515,3.908,3.497,3.733,1.058,1.803,1.742,�k�k��,6.6,�L
2015/04/01,09:10,1.957,3.513,3.908,3.497,3.737,1.060,1.802,1.743,�k�k��,6.4,�L
2015/04/01,09:20,1.960,3.512,3.908,3.500,3.735,1.057,1.798,1.740,�k�k��,7.4,��
2015/04/01,09:30,1.957,3.510,3.905,3.497,3.737,1.055,1.800,1.740,�k�k��,5.8,�L
2015/04/01,09:40,1.955,3.512,3.903,3.495,3.735,1.057,1.802,1.743,�k�k��,6.3,�L
2015/04/01,09:50,1.953,3.510,3.905,3.495,3.733,1.055,1.802,1.740,�k�k��,5.8,�L
2015/04/01,10:00,1.955,3.492,3.902,3.497,3.730,1.057,1.802,1.737,�k�k��,6.0,�L
2015/04/01,10:10,1.955,3.487,3.898,3.495,3.728,1.057,1.800,1.740,�k,5.4,�L
2015/04/01,10:20,1.955,3.487,3.898,3.493,3.727,1.058,1.797,1.737,�k,4.7,�L
2015/04/01,10:30,1.952,3.482,3.892,3.488,3.718,1.057,1.798,1.738,�k,4.7,�L
2015/04/01,10:40,1.952,3.478,3.883,3.488,3.707,1.055,1.797,1.738,�k�k��,5.2,�L
2015/04/01,10:50,1.950,3.468,3.872,3.478,3.690,1.053,1.793,1.733,�k,4.3,�L
2015/04/01,11:00,1.952,3.458,3.867,3.477,3.675,1.053,1.793,1.732,�k�k��,4.4,�L
2015/04/01,11:10,1.948,3.460,3.865,3.477,3.677,1.052,1.790,1.735,�k,4.7,�L
2015/04/01,11:20,1.948,3.458,3.865,3.473,3.682,1.053,1.788,1.733,�k,4.7,�L
2015/04/01,11:30,1.948,3.458,3.863,3.473,3.680,1.050,1.790,1.733,�k,5.1,�L
2015/04/01,11:40,1.947,3.452,3.865,3.473,3.683,1.052,1.792,1.733,�k,4.8,�L
2015/04/01,11:50,1.945,3.448,3.862,3.472,3.672,1.053,1.792,1.737,�k,3.8,�L
2015/04/01,12:00,1.947,3.438,3.852,3.465,3.667,1.055,1.788,1.732,�k�k��,4.1,�L
2015/04/01,12:10,1.942,3.435,3.843,3.462,3.665,1.053,1.788,1.730,�k�k��,4.5,�L
2015/04/01,12:20,1.943,3.435,3.842,3.465,3.665,1.050,1.788,1.730,�k�k��,5.7,��
2015/04/01,12:30,1.943,3.435,3.842,3.465,3.662,1.053,1.787,1.728,�k�k��,6.0,�L
2015/04/01,12:40,1.942,3.432,3.847,3.467,3.662,1.050,1.780,1.732,�k�k��,6.3,��
2015/04/01,12:50,1.940,3.438,3.843,3.465,3.667,1.052,1.780,1.732,�k�k��,4.7,��
2015/04/01,13:00,1.938,3.433,3.847,3.465,3.668,1.050,1.780,1.732,�k�k��,5.7,�L
2015/04/01,13:10,1.937,3.430,3.848,3.465,3.665,1.045,1.783,1.728,�k,4.7,�L
2015/04/01,13:20,1.938,3.422,3.837,3.457,3.658,1.048,1.782,1.732,�k�k��,5.8,�L
2015/04/01,13:30,1.935,3.417,3.833,3.457,3.652,1.048,1.782,1.727,�k�k��,5.2,�L
2015/04/01,13:40,1.937,3.413,3.830,3.450,3.648,1.048,1.778,1.727,�k�k��,6.1,�L
2015/04/01,13:50,1.935,3.402,3.817,3.450,3.635,1.048,1.773,1.728,�k�k��,4.9,�L
2015/04/01,14:00,1.933,3.385,3.807,3.443,3.628,1.047,1.772,1.723,�k�k��,6.0,�L
2015/04/01,14:10,1.928,3.365,3.802,3.438,3.625,1.048,1.780,1.727,�k�k��,5.1,�L
2015/04/01,14:20,1.930,3.375,3.798,3.442,3.625,1.045,1.780,1.727,�k,4.4,�L
2015/04/01,14:30,1.932,3.365,3.797,3.438,3.627,1.048,1.782,1.725,�k,4.9,�L
2015/04/01,14:40,1.928,3.345,3.803,3.442,3.625,1.047,1.780,1.725,�k,4.6,��
2015/04/01,14:50,1.927,3.325,3.798,3.437,3.625,1.048,1.782,1.725,�k,4.5,��
2015/04/01,15:00,1.928,3.328,3.800,3.432,3.628,1.050,1.778,1.725,�k,5.4,��
2015/04/01,15:10,1.927,3.337,3.800,3.435,3.622,1.055,1.780,1.727,�k,5.5,��
2015/04/01,15:20,1.925,3.312,3.800,3.437,3.610,1.057,1.780,1.723,�k,7.4,��
2015/04/01,15:30,1.927,3.298,3.798,3.433,3.622,1.058,1.780,1.725,�k,6.5,��
2015/04/01,15:40,1.923,3.305,3.805,3.433,3.625,1.057,1.780,1.723,�k,6.3,�L
2015/04/01,15:50,1.925,3.303,3.798,3.432,3.623,1.057,1.780,1.725,�k,6.3,�L
2015/04/01,16:00,1.927,3.300,3.785,3.428,3.618,1.052,1.778,1.725,�k,5.8,�L
2015/04/01,16:10,1.923,3.287,3.778,3.427,3.600,1.055,1.778,1.723,�k,7.2,�L
2015/04/01,16:20,1.923,3.280,3.767,3.410,3.588,1.055,1.777,1.723,�k,6.4,�L
2015/04/01,16:30,1.925,3.277,3.760,3.408,3.590,1.055,1.778,1.722,�k,6.4,�L
2015/04/01,16:40,1.920,3.272,3.757,3.400,3.582,1.053,1.775,1.723,�k,6.9,�L
2015/04/01,16:50,1.917,3.265,3.752,3.397,3.572,1.055,1.773,1.723,�k,6.8,�L
2015/04/01,17:00,1.913,3.263,3.745,3.392,3.568,1.057,1.773,1.722,�k,7.1,�L
2015/04/01,17:10,1.912,3.260,3.735,3.387,3.560,1.055,1.770,1.720,�k,7.8,�L
2015/04/01,17:20,1.910,3.250,3.723,3.378,3.552,1.053,1.763,1.720,�k,9.4,�L
2015/04/01,17:30,1.908,3.245,3.718,3.372,3.547,1.055,1.763,1.718,�k,8.3,�L
2015/04/01,17:40,1.908,3.245,3.720,3.365,3.542,1.055,1.765,1.718,�k,10.4,�L
2015/04/01,17:50,1.902,3.242,3.715,3.363,3.543,1.055,1.762,1.720,�k,9.3,�L
2015/04/01,18:00,1.902,3.237,3.710,3.358,3.537,1.050,1.765,1.717,�k,8.8,�L
2015/04/01,18:10,1.898,3.238,3.707,3.353,3.532,1.048,1.763,1.717,�k,7.7,�L
2015/04/01,18:20,1.898,3.238,3.707,3.352,3.527,1.053,1.763,1.717,�k,6.7,�L
2015/04/01,18:30,1.897,3.237,3.705,3.348,3.533,1.050,1.762,1.717,�k,6.7,�L
2015/04/01,18:40,1.892,3.232,3.703,3.347,3.532,1.052,1.762,1.717,�k,6.7,�L
2015/04/01,18:50,1.893,3.228,3.697,3.343,3.527,1.055,1.762,1.717,�k,6.4,�L
2015/04/01,19:00,1.890,3.223,3.695,3.342,3.527,1.048,1.762,1.715,�k,6.0,�L
2015/04/01,19:10,1.892,3.223,3.693,3.337,3.527,1.050,1.760,1.715,�k,6.1,�L
2015/04/01,19:20,1.888,3.217,3.683,3.328,3.518,1.048,1.758,1.713,�k,6.9,�L
2015/04/01,19:30,1.883,3.208,3.678,3.328,3.505,1.048,1.755,1.715,�k,7.1,�L
2015/04/01,19:40,1.882,3.205,3.675,3.323,3.497,1.048,1.758,1.713,�k,7.2,�L
2015/04/01,19:50,1.882,3.203,3.670,3.312,3.493,1.045,1.755,1.713,�k,6.7,�L
2015/04/01,20:00,1.878,3.195,3.667,3.307,3.487,1.045,1.753,1.713,�k,5.4,�L
2015/04/01,20:10,1.877,3.193,3.662,3.302,3.483,1.045,1.750,1.712,�k,6.3,�L
2015/04/01,20:20,1.875,3.190,3.658,3.297,3.480,1.042,1.747,1.712,�k,6.9,�L
2015/04/01,20:30,1.875,3.195,3.660,3.297,3.477,1.047,1.752,1.715,�k,7.1,�L
2015/04/01,20:40,1.880,3.202,3.663,3.303,3.487,1.047,1.750,1.712,�k,6.5,�L
2015/04/01,20:50,1.882,3.203,3.665,3.302,3.492,1.045,1.752,1.710,�k,7.1,�L
2015/04/01,21:00,1.875,3.207,3.667,3.303,3.497,1.043,1.753,1.712,�k,6.0,�L
2015/04/01,21:10,1.873,3.207,3.673,3.308,3.502,1.043,1.753,1.708,�k�k��,6.9,��
2015/04/01,21:20,1.875,3.210,3.675,3.307,3.500,1.042,1.750,1.712,�k�k��,7.7,��
2015/04/01,21:30,1.873,3.210,3.675,3.305,3.502,1.040,1.750,1.713,�k,6.4,��
2015/04/01,21:40,1.875,3.212,3.670,3.303,3.505,1.043,1.750,1.710,�k,7.1,��
2015/04/01,21:50,1.877,3.213,3.673,3.308,3.507,1.040,1.750,1.712,�k,6.9,�L
2015/04/01,22:00,1.875,3.217,3.677,3.308,3.507,1.040,1.750,1.712,�k,6.4,�L
2015/04/01,22:10,1.872,3.215,3.673,3.308,3.508,1.040,1.750,1.713,�k,6.0,��
2015/04/01,22:20,1.872,3.218,3.678,3.307,3.508,1.040,1.752,1.713,�k,5.6,��
2015/04/01,22:30,1.872,3.223,3.678,3.312,3.513,1.042,1.753,1.712,�k,5.5,��
2015/04/01,22:40,1.877,3.222,3.677,3.308,3.520,1.040,1.753,1.712,�k,5.1,��
2015/04/01,22:50,1.873,3.223,3.678,3.310,3.517,1.042,1.750,1.710,�k�k��,5.7,��
2015/04/01,23:00,1.875,3.225,3.680,3.313,3.515,1.040,1.752,1.710,�k�k��,5.5,��
2015/04/01,23:10,1.873,3.222,3.677,3.310,3.515,1.042,1.753,1.710,�k�k��,5.6,��
2015/04/01,23:20,1.877,3.223,3.677,3.313,3.517,1.040,1.752,1.710,�k�k��,5.5,��
2015/04/01,23:30,1.875,3.222,3.678,3.317,3.518,1.040,1.753,1.712,�k�k��,4.4,��
2015/04/01,23:40,1.878,3.223,3.682,3.308,3.518,1.042,1.752,1.713,�k�k��,5.4,��
2015/04/01,23:50,1.875,3.225,3.683,3.315,3.520,1.042,1.752,1.713,�k�k��,4.5,��
